Hourly Weather Armagh

Today, 14 July, Tuesday

Time Temperature Precipitation Wind Pressure Humidity
00:00 +11°C° 0 mm 3 mps 760 mmHg 84%
01:00 +11°C° 0 mm 3 mps 759 mmHg 85%
02:00 +10°C° 0 mm 3 mps 759 mmHg 87%
03:00 +10°C° 0 mm 3 mps 759 mmHg 89%
04:00 +10°C° 0 mm 3 mps 759 mmHg 89%
05:00 +10°C° 0 mm 3 mps 759 mmHg 89%
06:00 +12°C° 0 mm 2 mps 759 mmHg 90%
07:00 +11°C° 0.1 mm 3 mps 759 mmHg 90%
08:00 +12°C° 0.1 mm 3 mps 759 mmHg 89%
09:00 +12°C° 0.1 mm 3 mps 759 mmHg 89%
10:00 +12°C° 0.2 mm 3 mps 759 mmHg 91%
11:00 +12°C° 0.2 mm 3 mps 758 mmHg 93%
12:00 +12°C° 0.2 mm 3 mps 758 mmHg 95%
13:00 +12°C° 0.4 mm 4 mps 758 mmHg 96%
14:00 +12°C° 0.4 mm 4 mps 758 mmHg 96%
15:00 +12°C° 0.4 mm 4 mps 758 mmHg 97%
16:00 +12°C° 0.6 mm 3 mps 757 mmHg 97%
17:00 +12°C° 0.6 mm 3 mps 757 mmHg 97%
18:00 +12°C° 0.6 mm 3 mps 757 mmHg 97%
19:00 +12°C° 0.1 mm 3 mps 757 mmHg 97%
20:00 +12°C° 0.1 mm 3 mps 757 mmHg 97%
21:00 +12°C° 0.1 mm 3 mps 757 mmHg 97%
22:00 +12°C° 0 mm 3 mps 757 mmHg 97%
23:00 +12°C° 0 mm 3 mps 757 mmHg 97%

Tomorrow, 15 July, Wednesday

Time Temperature Precipitation Wind Pressure Humidity
00:00 +12°C° 0 mm 3 mps 757 mmHg 97%
01:00 +12°C° 0 mm 3 mps 757 mmHg 97%
02:00 +12°C° 0 mm 3 mps 756 mmHg 97%
03:00 +12°C° 0 mm 3 mps 756 mmHg 97%
04:00 +12°C° 0 mm 3 mps 756 mmHg 97%
05:00 +12°C° 0 mm 3 mps 756 mmHg 97%
06:00 +12°C° 0 mm 3 mps 756 mmHg 97%
07:00 +13°C° 0 mm 4 mps 756 mmHg 95%
08:00 +14°C° 0 mm 4 mps 757 mmHg 93%
09:00 +14°C° 0 mm 5 mps 757 mmHg 90%
10:00 +15°C° 0 mm 5 mps 757 mmHg 88%
11:00 +15°C° 0 mm 5 mps 757 mmHg 85%
12:00 +16°C° 0 mm 5 mps 757 mmHg 82%
13:00 +16°C° 0 mm 5 mps 758 mmHg 83%
14:00 +16°C° 0 mm 5 mps 758 mmHg 83%
15:00 +16°C° 0 mm 5 mps 758 mmHg 84%
16:00 +16°C° 0 mm 5 mps 758 mmHg 84%
17:00 +17°C° 0 mm 4 mps 758 mmHg 85%
18:00 +17°C° 0 mm 4 mps 758 mmHg 85%
19:00 +15°C° 0 mm 4 mps 759 mmHg 87%
20:00 +16°C° 0 mm 3 mps 759 mmHg 89%
21:00 +14°C° 0 mm 3 mps 759 mmHg 91%
22:00 +14°C° 0 mm 3 mps 759 mmHg 92%
23:00 +14°C° 0 mm 3 mps 759 mmHg 92%

Day after tomorrow, 16 July, Thursday

Time Temperature Precipitation Wind Pressure Humidity
00:00 +14°C° 0 mm 3 mps 760 mmHg 93%
01:00 +14°C° 0 mm 3 mps 760 mmHg 93%
02:00 +13°C° 0 mm 3 mps 759 mmHg 94%
03:00 +14°C° 0 mm 2 mps 759 mmHg 94%
04:00 +14°C° 0 mm 3 mps 759 mmHg 94%
05:00 +14°C° 0 mm 3 mps 759 mmHg 94%
06:00 +14°C° 0 mm 3 mps 759 mmHg 93%
07:00 +16°C° 0 mm 3 mps 760 mmHg 92%
08:00 +17°C° 0 mm 3 mps 760 mmHg 90%
09:00 +18°C° 0 mm 3 mps 760 mmHg 89%
10:00 +18°C° 0 mm 4 mps 760 mmHg 87%
11:00 +19°C° 0 mm 4 mps 760 mmHg 86%
12:00 +20°C° 0 mm 4 mps 760 mmHg 84%
13:00 +20°C° 0.1 mm 4 mps 760 mmHg 81%
14:00 +21°C° 0.1 mm 4 mps 760 mmHg 78%
15:00 +22°C° 0.1 mm 4 mps 760 mmHg 74%
16:00 +21°C° 0.1 mm 4 mps 760 mmHg 76%
17:00 +21°C° 0.1 mm 4 mps 760 mmHg 79%
18:00 +20°C° 0.1 mm 4 mps 760 mmHg 81%
19:00 +19°C° 0 mm 3 mps 760 mmHg 82%
20:00 +18°C° 0 mm 3 mps 760 mmHg 84%
21:00 +17°C° 0 mm 3 mps 760 mmHg 85%
22:00 +16°C° 0 mm 3 mps 759 mmHg 85%
23:00 +16°C° 0 mm 3 mps 759 mmHg 84%

17 July, Friday

Time Temperature Precipitation Wind Pressure Humidity
00:00 +16°C° 0 mm 3 mps 759 mmHg 84%
01:00 +15°C° 0 mm 4 mps 758 mmHg 84%
02:00 +14°C° 0 mm 4 mps 758 mmHg 85%
03:00 +14°C° 0 mm 4 mps 758 mmHg 85%
04:00 +14°C° 0 mm 4 mps 757 mmHg 86%
05:00 +14°C° 0 mm 4 mps 757 mmHg 87%
06:00 +14°C° 0 mm 5 mps 757 mmHg 88%
07:00 +15°C° 0 mm 5 mps 757 mmHg 88%
08:00 +15°C° 0 mm 5 mps 757 mmHg 89%
09:00 +15°C° 0 mm 5 mps 757 mmHg 90%
10:00 +15°C° 0.2 mm 5 mps 757 mmHg 91%
11:00 +15°C° 0.2 mm 5 mps 756 mmHg 93%
12:00 +15°C° 0.2 mm 4 mps 756 mmHg 95%
13:00 +15°C° 0.1 mm 4 mps 756 mmHg 95%
14:00 +15°C° 0.1 mm 5 mps 756 mmHg 95%
15:00 +16°C° 0.1 mm 5 mps 756 mmHg 94%
16:00 +17°C° 0.2 mm 4 mps 756 mmHg 94%
17:00 +17°C° 0.2 mm 4 mps 756 mmHg 94%
18:00 +17°C° 0.2 mm 4 mps 756 mmHg 93%
19:00 +15°C° 0.1 mm 4 mps 756 mmHg 94%
20:00 +13°C° 0.1 mm 3 mps 756 mmHg 95%
21:00 +13°C° 0.1 mm 2 mps 756 mmHg 96%
22:00 +12°C° 0 mm 2 mps 756 mmHg 95%
23:00 +10°C° 0 mm 2 mps 756 mmHg 95%

18 July, Saturday

Time Temperature Precipitation Wind Pressure Humidity
00:00 +9°C° 0 mm 2 mps 756 mmHg 95%
01:00 +9°C° 0 mm 2 mps 756 mmHg 94%
02:00 +10°C° 0 mm 1 mps 756 mmHg 93%
03:00 +10°C° 0 mm 1 mps 756 mmHg 93%
04:00 +10°C° 0 mm 1 mps 756 mmHg 92%
05:00 +9°C° 0 mm 2 mps 756 mmHg 91%
06:00 +10°C° 0 mm 2 mps 756 mmHg 90%
07:00 +11°C° 0 mm 3 mps 756 mmHg 86%
08:00 +12°C° 0 mm 3 mps 756 mmHg 82%
09:00 +13°C° 0 mm 4 mps 756 mmHg 78%
10:00 +14°C° 0.1 mm 4 mps 757 mmHg 75%
11:00 +15°C° 0.1 mm 4 mps 757 mmHg 73%
12:00 +15°C° 0.1 mm 4 mps 757 mmHg 70%
13:00 +17°C° 0.1 mm 4 mps 757 mmHg 68%
14:00 +17°C° 0.1 mm 4 mps 757 mmHg 66%
15:00 +16°C° 0.1 mm 5 mps 757 mmHg 64%
16:00 +15°C° 0.1 mm 4 mps 757 mmHg 68%
17:00 +14°C° 0.1 mm 4 mps 758 mmHg 72%
18:00 +14°C° 0.1 mm 4 mps 758 mmHg 77%
19:00 +12°C° 0.1 mm 3 mps 758 mmHg 81%
20:00 +11°C° 0.1 mm 3 mps 759 mmHg 86%
21:00 +9°C° 0.1 mm 3 mps 759 mmHg 91%
22:00 +9°C° 0 mm 3 mps 759 mmHg 92%
23:00 +8°C° 0 mm 3 mps 759 mmHg 94%

19 July, Sunday

Time Temperature Precipitation Wind Pressure Humidity
00:00 +7°C° 0 mm 2 mps 759 mmHg 95%
01:00 +7°C° 0 mm 2 mps 760 mmHg 95%
02:00 +7°C° 0 mm 2 mps 760 mmHg 95%
03:00 +7°C° 0 mm 2 mps 760 mmHg 95%
04:00 +7°C° 0 mm 3 mps 760 mmHg 94%
05:00 +8°C° 0 mm 3 mps 760 mmHg 93%
06:00 +8°C° 0 mm 3 mps 760 mmHg 91%
07:00 +10°C° 0 mm 3 mps 760 mmHg 86%
08:00 +11°C° 0 mm 4 mps 761 mmHg 82%
09:00 +13°C° 0 mm 4 mps 761 mmHg 77%
10:00 +13°C° 0.2 mm 4 mps 761 mmHg 75%
11:00 +14°C° 0.2 mm 4 mps 761 mmHg 74%
12:00 +15°C° 0.2 mm 5 mps 761 mmHg 72%
13:00 +15°C° 0.2 mm 5 mps 761 mmHg 69%
14:00 +15°C° 0.2 mm 5 mps 761 mmHg 66%
15:00 +16°C° 0.2 mm 5 mps 761 mmHg 64%
16:00 +15°C° 0 mm 5 mps 761 mmHg 66%
17:00 +15°C° 0 mm 4 mps 761 mmHg 69%
18:00 +14°C° 0 mm 4 mps 761 mmHg 72%
19:00 +13°C° 0 mm 3 mps 761 mmHg 76%
20:00 +12°C° 0 mm 3 mps 762 mmHg 80%
21:00 +12°C° 0 mm 2 mps 762 mmHg 83%
22:00 +10°C° 0 mm 2 mps 762 mmHg 87%
23:00 +9°C° 0 mm 2 mps 761 mmHg 91%
Show more